[[{"header":{"parameterUnit":"m.s-1","parameterCategory":1,"la1":30.2991,"la2":30.254,"lo1":-89.0895,"lo2":-89.0444,"dy":0.0017,"dx":0.0017,"nx":28,"ny":28,"refTime":"2024-08-10T21:00:00:Z","depth":0,"parameterNumber":2,"parameterNumberName":"U-component_of_WINDS"},"data":[0,0,0,0,0,0,0,0,0,0,0,0,0,0,0,0,0,0,0,0,0,0,0,0,0,0,0,0,0,0,0,0,0,0,0,0,0,0,0,0,0,0,0,0,0,0,0,0,0,0,0,0,0,0,0,0,0,0,3.585,3.5851,0,3.5882,3.5882,3.5882,3.5774,3.5771,3.5767,3.5764,3.5795,3.5799,3.5803,0,0,0,0,0,0,0,0,0,0,0,0,0,3.5694,3.5698,3.585,3.5851,3.5851,3.5882,3.5882,3.5882,3.5775,3.5771,3.5767,3.5763,3.5794,3.5798,3.5803,0,0,0,0,0,0,0,0,0,0,0,0,0,3.5748,3.5699,3.585,3.5801,3.5797,3.5881,3.5882,3.5882,3.5775,3.577,3.5766,3.5761,3.5792,3.5798,3.5804,3.5937,0,0,3.5821,3.5824,0,0,0,0,0,0,0,0,3.5745,3.5753,3.5808,3.5804,3.58,3.5819,3.5838,3.5901,3.5777,3.5783,3.5764,3.5759,3.5807,3.5811,3.5828,3.5938,3.5939,3.5822,3.5825,3.5828,3.5829,0,0,0,0,0,0,0,3.5741,3.5752,3.5862,3.5809,3.5804,3.5776,3.5779,3.585,3.5822,3.5782,3.5775,3.578,3.5804,3.5822,3.5828,3.594,3.5822,3.5827,3.583,3.5832,3.6159,3.6163,0,0,0,0,0,0,3.5744,3.5749,3.5861,3.5863,3.576,3.5783,3.5786,3.5818,3.5821,3.5817,3.5784,3.5775,3.5815,3.5821,3.5828,3.5982,3.5828,3.5833,3.5836,3.6153,3.616,3.6165,0,0,0,0,0,0,3.5741,3.5755,3.586,3.5804,3.5815,3.5791,3.5828,3.5821,3.5839,3.5822,3.5817,3.5808,3.5811,3.582,3.591,3.5981,3.5836,3.5841,3.6147,3.6155,3.6163,3.6292,0,0,0,0,0,0,3.5737,3.5755,3.5806,3.5806,3.5819,3.5943,3.5832,3.5825,3.585,3.5838,3.5843,3.584,3.5808,3.5902,3.5916,3.5987,3.5845,3.6141,3.6151,3.616,3.6281,3.6303,3.6322,0,0,0,0,0,3.5732,3.5841,3.5809,3.5823,3.5882,3.5947,3.5954,3.5916,3.5856,3.5906,3.5895,3.5839,3.5972,3.5912,3.5927,3.6,3.6136,3.6148,3.6159,3.6271,3.6298,3.6321,0,0,0,0,0,0,3.5849,3.584,3.5804,3.5917,3.5934,3.5928,3.599,3.5946,3.598,3.5967,3.5918,3.592,3.6018,3.6019,3.5952,3.6128,3.6043,3.6059,3.6124,3.6149,3.6169,3.6166,3.585,0,0,0,0,0,3.5888,3.5942,3.5931,3.6032,3.6042,3.6016,3.6042,3.6012,3.6026,3.6033,3.6028,3.6044,3.6089,3.612,3.616,3.6281,3.6279,3.6339,3.636,3.6377,3.6389,3.645,3.6476,3.6204,3.6204,3.6203,0,0,3.5969,3.5971,3.6008,3.6055,3.6064,3.612,3.6022,3.6086,3.6126,3.6042,3.6126,3.6124,3.6138,3.6244,3.629,3.6247,3.6464,3.6392,3.6405,3.6408,3.6465,3.6491,3.6514,3.6212,3.621,3.6209,0,0,3.6144,3.6152,3.6235,3.6246,3.6262,3.6243,3.6264,3.6266,3.6261,3.6344,3.6282,3.633,3.6409,3.6421,3.6438,3.6618,3.6567,3.6633,3.6738,3.6798,3.682,3.6838,3.69,3.6922,3.6646,3.6646,3.6647,0,3.6242,3.6324,3.6283,3.6351,3.6372,3.63,3.6383,3.6396,3.6424,3.644,3.6392,3.6489,3.6494,3.66,3.6644,3.6661,3.668,3.663,3.682,3.6839,3.6855,3.6913,3.6937,3.6654,3.6653,3.6652,3.6652,0,3.6442,3.65,3.6565,3.6594,3.6623,3.6698,3.6668,3.6703,3.667,3.6657,3.6742,3.6746,3.6785,3.6808,3.6777,3.691,3.6882,3.6829,3.6742,3.689,3.6943,3.6965,3.6665,3.6662,3.666,3.6658,0,0,3.6689,3.6695,3.6719,3.673,3.6742,3.6785,3.6857,3.6896,3.6925,3.6947,3.7004,3.7073,3.7023,3.7042,3.7012,3.7066,3.7204,3.7004,3.7004,3.7038,3.7347,3.7385,3.7411,3.7172,3.7176,3.7179,3.7344,0,3.6858,3.698,3.6945,3.7067,3.7119,3.7051,3.7113,3.7127,3.7117,3.7158,3.7147,3.7195,3.7127,3.7137,3.7188,3.7177,3.7265,3.7165,3.7222,3.7224,3.7217,3.7439,3.748,3.7635,3.7365,3.7369,3.7371,0,3.7071,3.7101,3.7228,3.723,3.725,3.7306,3.7338,3.738,3.7393,3.7382,3.7404,3.7362,3.7431,3.7347,3.744,3.7373,3.7394,3.7393,3.7398,3.7399,3.7304,3.7443,3.7684,3.7706,3.7404,3.7402,3.7399,0,3.7234,3.7307,3.7391,3.7403,3.7409,3.7449,3.7454,3.7463,3.7488,3.7516,3.7531,3.7567,3.7586,3.7615,3.7583,3.7526,3.768,3.7594,3.767,3.7671,3.7703,3.7701,3.7948,3.7724,3.7723,3.7723,3.7722,0,3.7424,3.7503,3.7464,3.7516,3.7602,3.7562,3.7649,3.7645,3.7654,3.7703,3.7648,3.7695,3.7653,3.7696,3.7673,3.7751,3.7761,3.7753,3.7745,3.7755,3.7756,3.7766,3.7753,3.7729,3.7728,3.7726,3.7725,0,3.7619,3.7597,3.7684,3.7682,3.7683,3.7747,3.7745,3.7792,3.7778,3.7841,3.7853,3.7831,3.7879,3.7852,3.7901,3.7885,3.7986,3.7966,3.7982,3.7975,3.8051,3.8043,3.831,3.8342,3.8101,3.8104,3.8106,0,3.774,3.7799,3.7804,3.7833,3.7841,3.7889,3.7914,3.7877,3.7905,3.7925,3.797,3.8013,3.8045,3.8124,3.8112,3.8148,3.8126,3.8217,3.8131,3.8139,3.8123,3.8118,3.8123,3.8233,3.8236,3.8238,3.824,0,3.7956,3.7942,3.798,3.8015,3.8047,3.8073,3.8094,3.8121,3.8084,3.8119,3.8167,3.8192,3.8242,3.8284,3.8316,3.8318,3.8273,3.8268,3.8287,3.8297,3.8302,3.8297,3.8025,3.8261,3.8259,3.8258,3.8256,3.8256,3.8115,3.8164,3.8174,3.8219,3.8231,3.8252,3.8295,3.8287,3.8327,3.8364,3.8341,3.8397,3.8408,3.8446,3.8455,3.8497,3.846,3.8489,3.8495,3.8502,3.8511,3.8299,3.8503,3.8503,3.8502,3.8502,3.8501,0,3.8325,3.8329,3.837,3.8401,3.8436,3.8392,3.8413,3.8444,3.8495,3.8509,3.8542,3.8597,3.8638,3.863,3.8666,3.8702,3.8682,3.8712,3.8707,3.8708,3.8543,3.8521,3.8728,3.8728,3.8728,3.8728,3.8728,3.8728,3.8438,3.8517,3.8505,3.8589,3.8592,3.8646,3.8662,3.868,3.8691,3.8755,3.8789,3.8784,3.8789,3.8825,3.886,3.8857,3.8871,3.8909,3.8898,3.8743,3.872,3.8699,3.8678,3.8914,3.8914,3.9059,3.906,3.9061]},{"header":{"parameterUnit":"m.s-1","parameterCategory":1,"la1":30.2991,"la2":30.254,"lo1":-89.0895,"lo2":-89.0444,"dy":0.0017,"dx":0.0017,"nx":28,"ny":28,"refTime":"2024-08-10T21:00:00:Z","depth":0,"parameterNumber":3,"parameterNumberName":"V-component_of_WINDS"},"data":[0,0,0,0,0,0,0,0,0,0,0,0,0,0,0,0,0,0,0,0,0,0,0,0,0,0,0,0,0,0,0,0,0,0,0,0,0,0,0,0,0,0,0,0,0,0,0,0,0,0,0,0,0,0,0,0,0,0,1.0693,1.0693,0,1.0728,1.0728,1.0728,1.0733,1.0733,1.0733,1.0732,1.0767,1.0768,1.077,0,0,0,0,0,0,0,0,0,0,0,0,0,1.0628,1.0629,1.0693,1.0693,1.0694,1.0728,1.0728,1.0729,1.0733,1.0733,1.0733,1.0732,1.0767,1.0768,1.077,0,0,0,0,0,0,0,0,0,0,0,0,0,1.0659,1.063,1.0693,1.07,1.0701,1.0727,1.0728,1.0729,1.0733,1.0733,1.0732,1.0732,1.0766,1.0768,1.077,1.0791,0,0,1.0775,1.0776,0,0,0,0,0,0,0,0,1.0657,1.0661,1.0699,1.07,1.0701,1.0726,1.0718,1.075,1.0734,1.0721,1.0732,1.0732,1.0754,1.0757,1.0764,1.0793,1.0794,1.0776,1.0777,1.0778,1.0778,0,0,0,0,0,0,0,1.0655,1.066,1.0706,1.0699,1.07,1.0701,1.0705,1.0724,1.074,1.0722,1.0723,1.0727,1.0754,1.0762,1.0765,1.0795,1.0776,1.0777,1.0778,1.0779,1.084,1.0841,0,0,0,0,0,0,1.0652,1.0658,1.0705,1.0708,1.0677,1.0703,1.0707,1.0718,1.0739,1.0742,1.0727,1.0727,1.0759,1.0763,1.0766,1.0791,1.0778,1.0779,1.078,1.084,1.084,1.0841,0,0,0,0,0,0,1.065,1.0656,1.0704,1.0683,1.0689,1.0704,1.0717,1.0719,1.0727,1.0743,1.0746,1.0733,1.0759,1.0764,1.0784,1.0792,1.078,1.0782,1.0839,1.084,1.0841,1.0842,0,0,0,0,0,0,1.0648,1.0655,1.0664,1.0683,1.069,1.0722,1.0717,1.072,1.0731,1.0731,1.0749,1.0752,1.0759,1.0782,1.0786,1.0795,1.0783,1.0838,1.0839,1.084,1.0841,1.0843,1.0844,0,0,0,0,0,1.0646,1.0663,1.0665,1.067,1.0701,1.0723,1.0727,1.0735,1.0731,1.074,1.075,1.0751,1.0791,1.0784,1.0789,1.0798,1.0838,1.0839,1.084,1.0841,1.0842,1.0844,0,0,0,0,0,0,1.0645,1.0666,1.0668,1.0692,1.0705,1.0724,1.0735,1.0737,1.0752,1.0751,1.0761,1.0765,1.0785,1.0794,1.0785,1.0819,1.0814,1.0816,1.0812,1.0814,1.0816,1.0813,1.0785,0,0,0,0,0,1.0647,1.0664,1.0681,1.07,1.0707,1.072,1.0729,1.0734,1.0749,1.0755,1.0766,1.078,1.0795,1.0805,1.082,1.0842,1.0846,1.0851,1.0852,1.0854,1.0855,1.0866,1.0868,1.0845,1.0845,1.0845,0,0,1.0653,1.0666,1.0676,1.07,1.0712,1.0727,1.0725,1.0742,1.0753,1.0757,1.0777,1.0786,1.0802,1.0823,1.0833,1.0831,1.0862,1.0855,1.0856,1.0857,1.0868,1.087,1.0872,1.0845,1.0845,1.0845,0,0,1.0671,1.0683,1.07,1.0711,1.0728,1.0736,1.074,1.0758,1.0764,1.0784,1.0787,1.08,1.0827,1.0838,1.0847,1.0866,1.0868,1.0871,1.0878,1.0888,1.089,1.0892,1.0898,1.09,1.0873,1.0873,1.0873,0,1.0675,1.07,1.0708,1.0725,1.0735,1.0739,1.0756,1.0766,1.0787,1.0793,1.0791,1.0823,1.0834,1.0857,1.0862,1.0869,1.0873,1.0869,1.0889,1.0891,1.0893,1.0899,1.0901,1.0873,1.0873,1.0873,1.0873,0,1.0704,1.072,1.0732,1.0752,1.0763,1.0779,1.079,1.08,1.0804,1.0811,1.0831,1.0844,1.0862,1.0867,1.0871,1.0891,1.0889,1.0888,1.0883,1.0895,1.0901,1.0903,1.0873,1.0873,1.0873,1.0873,0,0,1.0723,1.0746,1.075,1.0759,1.0777,1.079,1.0805,1.0822,1.083,1.0844,1.0857,1.0879,1.0878,1.0888,1.0893,1.0902,1.0915,1.09,1.09,1.0901,1.0936,1.0936,1.0939,1.0916,1.0917,1.0917,1.0934,0,1.0742,1.0771,1.0779,1.0803,1.0818,1.0821,1.0835,1.0847,1.0854,1.0867,1.0875,1.089,1.0888,1.0894,1.0903,1.0912,1.0922,1.0911,1.0928,1.0928,1.0923,1.0942,1.0943,1.0958,1.0937,1.0937,1.0937,0,1.0769,1.0783,1.0809,1.0824,1.083,1.0843,1.0858,1.087,1.0884,1.0888,1.0899,1.0902,1.0918,1.0912,1.0933,1.0925,1.0932,1.0937,1.0938,1.094,1.0933,1.0943,1.0963,1.0965,1.0941,1.0941,1.0941,0,1.0779,1.0804,1.0823,1.083,1.0848,1.0857,1.0864,1.0877,1.0886,1.0899,1.0905,1.092,1.0928,1.0939,1.0946,1.0941,1.0966,1.0961,1.0969,1.0969,1.0974,1.0974,1.0995,1.098,1.098,1.0979,1.0979,0,1.08,1.0815,1.0827,1.0839,1.0855,1.0863,1.088,1.0887,1.0899,1.0911,1.0915,1.0926,1.0935,1.0947,1.0952,1.0968,1.0972,1.0975,1.0977,1.0975,1.0974,1.098,1.0978,1.098,1.098,1.098,1.098,0,1.0814,1.0823,1.0843,1.0858,1.0862,1.0874,1.0887,1.0897,1.0904,1.0919,1.0923,1.0934,1.0949,1.0957,1.0975,1.0978,1.0996,1.0997,1.0991,1.0992,1.0999,1.0998,1.1024,1.1027,1.101,1.1011,1.1011,0,1.0826,1.0838,1.0854,1.0863,1.0871,1.0885,1.0894,1.0901,1.091,1.0926,1.0934,1.0948,1.096,1.0983,1.0992,1.1005,1.1006,1.1014,1.1008,1.1006,1.1005,1.1004,1.1005,1.1015,1.1015,1.1016,1.1016,0,1.0847,1.0851,1.0864,1.0878,1.0889,1.0901,1.0912,1.0919,1.0928,1.0938,1.0952,1.0962,1.098,1.0993,1.1007,1.1015,1.1016,1.1017,1.102,1.1018,1.1014,1.1015,1.0993,1.1017,1.1017,1.1017,1.1017,1.1016,1.086,1.0871,1.0883,1.0897,1.0907,1.0917,1.0927,1.0935,1.0948,1.0963,1.0966,1.0981,1.0993,1.1012,1.1019,1.103,1.1029,1.1033,1.1033,1.1034,1.1034,1.1012,1.1033,1.1033,1.1033,1.1033,1.1033,0,1.0881,1.0889,1.0902,1.0917,1.0928,1.0929,1.0941,1.095,1.0963,1.0974,1.0985,1.1001,1.1014,1.1024,1.1037,1.1044,1.1045,1.1047,1.1046,1.1048,1.1035,1.1031,1.1046,1.1046,1.1046,1.1046,1.1046,1.1046,1.0892,1.0909,1.0914,1.0935,1.0943,1.0957,1.0964,1.0973,1.0982,1.0999,1.101,1.1017,1.1026,1.104,1.1052,1.1054,1.1058,1.106,1.1063,1.105,1.1049,1.1048,1.1044,1.1061,1.1061,1.1075,1.1075,1.1075]}]]